Bar Harbor, ME

11:54 PM EDT on October 23, 2019 (GMT -0400)
Hancock County-Bar Harbor

Weather History for KBHB - August, 2019

Change the Weather History Date:

Monday, August 5, 2019

  Actual Average Record
Temperature  
Mean Temperature 65 °F -  
Max Temperature 77 °F 77 °F 90 °F (1955)
Min Temperature 53 °F 57 °F 49 °F (1972)
Growing Degree Days 15 (Base 50)    
Moisture  
Dew Point 51 °F    
Average Humidity 62    
Maximum Humidity 90    
Minimum Humidity 40    
Precipitation  
Precipitation 0.00 in - - ()
Sea Level Pressure  
Sea Level Pressure 29.94 in    
Wind  
Wind Speed 5 mph (WSW)    
Max Wind Speed 14 mph    
Max Gust Speed 17 mph    
Visibility 10 miles    
Events      
Averages and records for this station are not official NWS values.
T = Trace of Precipitation, MM = Missing Value Source: NWS Daily Summary

Daily Weather History Graph

Daily Weather History Graph

Search for Another Location

Airport or City:

Astronomy

Aug. 05, 2019 Rise Set
Actual Time 5:24 AM EDT 7:53 PM EDT
Civil Twilight 4:51 AM EDT 8:26 PM EDT
Nautical Twilight 4:10 AM EDT 9:07 PM EDT
Astronomical Twilight 3:24 AM EDT 9:53 PM EDT
Moon 10:48 AM EDT (8/5) 10:50 PM EDT (8/5)
Length of Visible Light 15h 34m
Length of Day
14h 29m
Waxing Crescent, 28% of the Moon is Illuminated
Aug 5
Waxing Crescent
Aug 7
First Quarter
Aug 15
Full
Aug 23
Last Quarter
Aug 30
New

Hourly Weather History & Observations

Time (EDT) Temp. Dew Point Humidity Pressure Visibility Wind Dir Wind Speed Gust Speed Precip Events Conditions
12:56 AM 57.9 °F 46.9 °F 67% 29.92 in 10.0 mi Calm Calm - N/A   Clear
1:56 AM 57.0 °F 48.0 °F 72% 29.92 in 10.0 mi WNW 4.6 mph - N/A   Clear
2:56 AM 57.9 °F 48.0 °F 70% 29.93 in 10.0 mi West 6.9 mph - N/A   Clear
3:56 AM 57.0 °F 46.9 °F 69% 29.93 in 10.0 mi WNW 5.8 mph - N/A   Clear
4:56 AM 55.0 °F 46.9 °F 74% 29.94 in 10.0 mi Calm Calm - N/A   Clear
5:56 AM 53.1 °F 46.9 °F 80% 29.94 in 10.0 mi NE 3.5 mph - N/A   Clear
6:56 AM 57.0 °F 50.0 °F 77% 29.96 in 10.0 mi Calm Calm - N/A   Clear
7:56 AM 63.0 °F 50.0 °F 63% 29.96 in 10.0 mi Variable 3.5 mph - N/A   Clear
8:56 AM 66.0 °F 50.0 °F 56% 29.96 in 10.0 mi West 8.1 mph - N/A   Clear
9:56 AM 68.0 °F 48.9 °F 50% 29.96 in 10.0 mi Variable 6.9 mph - N/A   Clear
10:56 AM 70.0 °F 50.0 °F 49% 29.96 in 10.0 mi NW 8.1 mph - N/A   Clear
11:56 AM 73.0 °F 50.0 °F 44% 29.94 in 10.0 mi WNW 6.9 mph - N/A   Clear
12:56 PM 73.9 °F 50.0 °F 43% 29.94 in 10.0 mi North 10.4 mph 17.3 mph N/A   Clear
1:56 PM 75.0 °F 51.1 °F 43% 29.93 in 8.0 mi Variable 5.8 mph - N/A   Partly Cloudy
2:56 PM 77.0 °F 51.1 °F 40% 29.92 in 10.0 mi WSW 6.9 mph - N/A   Partly Cloudy
3:56 PM 77.0 °F 51.1 °F 40% 29.92 in 10.0 mi Variable 4.6 mph - N/A   Clear
4:56 PM 77.0 °F 53.1 °F 43% 29.93 in 10.0 mi SW 8.1 mph - N/A   Clear
5:56 PM 73.0 °F 55.0 °F 53% 29.93 in 10.0 mi SSW 13.8 mph - N/A   Clear
6:56 PM 70.0 °F 55.0 °F 59% 29.94 in 10.0 mi SSW 9.2 mph - N/A   Clear
7:56 PM 66.0 °F 55.9 °F 70% 29.94 in 10.0 mi SW 9.2 mph - N/A   Clear
8:56 PM 63.0 °F 55.9 °F 78% 29.95 in 10.0 mi South 5.8 mph - N/A   Clear
9:56 PM 62.1 °F 55.9 °F 80% 29.96 in 10.0 mi South 5.8 mph - N/A   Clear
10:56 PM 61.0 °F 57.0 °F 87% 29.97 in 10.0 mi SW 8.1 mph - N/A   Clear
11:56 PM 61.0 °F 57.9 °F 90% 29.97 in 10.0 mi SSW 8.1 mph - N/A   Clear